Regional Weather Roundup
Issued by NWS

Home | Current Version | Previous Version | Text Only | Print | Product List | Glossary On
Versions: 1 2 3 4 5 6 7 8 9 10 11 12 13 14 15 16 17 18 19 20 21 22 23 24 25 26 27 28 29 30 31 32 33 34 35 36 37 38 39 40 41 42 43 44 45 46 47 48 49 50
000
ASUS44 KBMX 210710
RWRAL

ALABAMA REGIONAL WEATHER ROUNDUP
NATIONAL WEATHER SERVICE BIRMINGHAM AL
100 AM CST SAT JAN 21 2017

NOTE: "FAIR" INDICATES FEW OR NO CLOUDS BELOW 12,000 FEET
WITH NO SIGNIFICANT WEATHER AND/OR OBSTRUCTIONS TO VISIBILITY.

THE REMARK "TC" DENOTES TEMPERATURE IN DEGREES CELSIUS.

ALZ001>011-014-016>018-020-210800-
NORTH ALABAMA

CITY           SKY/WX    TMP DP  RH WIND       PRES   REMARKS
MUSCLE SHOALS  CLOUDY    57  52  83 SE3       29.78S
HUNTSVILLE     PTCLDY    58  55  90 E6        29.78F
DECATUR        MOCLDY    56  56 100 SE3       29.78F
HALEYVILLE     FAIR      57  55  93 S5        29.81R
GADSDEN        CLOUDY    51  50  96 CALM      29.84R
$$

ALZ012-013-022-023-030>036-040>044-210800-
WEST CENTRAL ALABAMA

CITY           SKY/WX    TMP DP  RH WIND       PRES   REMARKS
TUSCALOOSA     CLOUDY    56  55  97 CALM      29.78F
$$

ALZ015-024>027-033>036-040>044-210800-
CENTRAL ALABAMA

CITY           SKY/WX    TMP DP  RH WIND       PRES   REMARKS
BIRMINGHAM     MOCLDY    64  61  90 S6        29.83R
MONTGOMERY     FOG       65  61  87 S3        29.83F VSB 3/4
SHELBY CO ARPT CLOUDY    58  58 100 CALM      29.82S
MAXWELL AFB    FOG       63  63 100 CALM      29.83S VSB 3/4
GREENVILLE     CLOUDY    66  63  90 S3        29.82F FOG
$$

ALZ019-021-028-029-037-038-045>048-210800-
EAST CENTRAL ALABAMA

CITY           SKY/WX    TMP DP  RH WIND       PRES   REMARKS
ANNISTON       CLOUDY    56  55  97 CALM      29.83S
ALEXANDER CITY FOG       67  66  96 CALM      29.85S VSB 3/4
AUBURN         CLOUDY    64  64 100 SW8G21    29.88S
$$

ALZ051>064-210800-
SOUTHWEST ALABAMA

CITY           SKY/WX    TMP DP  RH WIND       PRES   REMARKS
MOBILE         CLOUDY    68  66  93 SE8       29.79F FOG
BROOKLEY FIELD MOCLDY    69  68  96 S6        29.81F
EVERGREEN      CLOUDY    66  65  96 CALM      29.82F
$$

ALZ049-050-065>069-210800-
SOUTHEAST ALABAMA

CITY           SKY/WX    TMP DP  RH WIND       PRES   REMARKS
DOTHAN         CLOUDY    70  69  97 S6        29.90R
OZARK          CLOUDY    69  69 100 S5        29.85F
TROY           CLOUDY    66  66 100 CALM      29.86S
EUFAULA        MOCLDY    68  66  93 CALM      29.86R
$$



USA.gov is the U.S. government's official web portal to all federal, state and local government web resources and services.